Regional Weather Roundup
Issued by NWS

Current Version | Previous Version | Text Only | Print | Product List | Glossary On
Versions: 1 2 3 4 5 6 7 8 9 10 11 12 13 14 15 16 17 18 19 20 21 22 23 24 25 26 27 28 29 30 31 32 33 34 35 36 37 38 39 40 41 42 43 44 45 46 47 48 49 50
000
ASUS46 KPQR 020910
RWROR

OREGON REGIONAL WEATHER ROUNDUP
NATIONAL WEATHER SERVICE PORTLAND OR
200 AM PDT SUN AUG 02 2015

NOTE: "FAIR" INDICATES FEW OR NO CLOUDS BELOW 12,000 FEET WITH
NO SIGNIFICANT WEATHER AND/OR OBSTRUCTIONS TO VISIBILITY.

ORZ001>013-021000-
NORTHWEST OREGON


CITY           SKY/WX    TMP DP  RH WIND       PRES   REMARKS
ASTORIA        PTCLDY    56  55  97 S3        29.93S
NEWPORT        CLOUDY    55  54  94 N3        29.96F FOG
PORTLAND       MOCLDY    74  51  44 NW8       29.87R
VANCOUVER WA   MOCLDY    73  49  42 NW3       29.86S
SCAPPOOSE      PTCLDY    69  48  47 CALM      29.85S
HILLSBORO      PTCLDY    67  45  45 S5        29.87R
AURORA         PTCLDY    70  47  43 E5        29.88S
MCMINNVILLE    PTCLDY    66  53  63 W5        29.89R
SALEM          PTCLDY    68  52  56 S3        29.88R
CORVALLIS      PTCLDY    63  52  67 W9        29.93R
EUGENE         PTCLDY    63  51  65 SW9       29.92S
$$

ORZ021-028-021000-
SOUTHWEST OREGON


CITY           SKY/WX    TMP DP  RH WIND       PRES   REMARKS
NORTH BEND     CLOUDY    57  57 100 CALM      29.97F
BROOKINGS      CLOUDY    59  59 100 VRB3      29.98R FOG
ROSEBURG       MOCLDY    73  52  47 CALM      29.92S
SEXTON SUMMIT  PTCLDY    68  49  50 NW8       30.05F
MEDFORD        PTCLDY    75  52  44 NE6       29.91R
$$

ORZ014>016-041-021000-
COLUMBIA GORGE


CITY           SKY/WX    TMP DP  RH WIND       PRES   REMARKS
TROUTDALE      MOCLDY    69  56  62 CALM      29.85S
THE DALLES     CLOUDY    82  50  32 NW14      29.78S
$$

ORZ029>031-041-044-049-050-061>064-502-503-505>511-021000-
EASTERN OREGON


CITY           SKY/WX    TMP DP  RH WIND       PRES   REMARKS
REDMOND        PTCLDY    64  33  31 S6        29.97S
BEND           PTCLDY    66  41  39 CALM      30.00S
PRINEVILLE     MOCLDY    66  27  22 CALM      29.98R
KLAMATH FALLS  HAZE      70  46  42 SW8       30.05R VSB 1
LAKEVIEW       CLOUDY    66  41  39 NW9       30.05S
HERMISTON      MOCLDY    71  30  21 CALM      29.79S
PENDLETON      PTCLDY    66  24  20 E8        29.85R
JOHN DAY       PTCLDY    72  32  23 E8        30.01S
MEACHAM        CLEAR     46  31  55 CALM      30.02F
LA GRANDE      CLEAR     57  28  33 CALM      29.96S
BAKER CITY     CLEAR     53  44  71 CALM      29.99S
BURNS          MOCLDY    69  31  24 W9        30.01S
ROME             N/A     75  26  16 W3        29.96S
ONTARIO        PTCLDY    76  30  18 NW8       29.85F
$$


USA.gov is the U.S. government's official web portal to all federal, state and local government web resources and services.